FW5309 Weather Reports


time (UTC)temp
C
wind
direction
speed
KPH
gust
KPH
rain 1hr
cm
rain 24hr
cm
rain mn
cm
humidity
%
barometer
mb
20260906114535 22 137 0.0 0.0 0.00 0.00 0.00 81 1012.5
20260906113046 22 137 0.0 0.0 0.00 0.00 0.00 81 1012.4
20260906111512 22 137 0.0 0.0 0.00 0.00 0.00 81 1012.4
20260906110042 22 137 0.0 0.0 0.00 0.00 0.00 80 1012.2
20260906104514 22 137 0.0 0.0 0.00 0.00 0.00 81 1012.2
20260906103026 22 137 0.0 0.0 0.00 0.00 0.00 81 1012.3
20260906101552 22 137 0.0 0.0 0.00 0.00 0.00 81 1011.9
20260906100010 22 137 0.0 0.0 0.00 0.00 0.00 82 1011.9
20260906094606 21 137 0.0 0.0 0.00 0.00 0.00 82 1011.9
20260906093009 21 137 0.0 0.0 0.00 0.00 0.00 83 1011.8
20260906091543 21 137 0.0 0.0 0.00 0.00 0.00 84 1011.8
20260906090008 21 137 0.0 0.0 0.00 0.00 0.00 84 1011.4
20260906084537 21 137 0.0 0.0 0.00 0.00 0.00 85 1011.3
20260906083100 20 137 0.0 0.0 0.00 0.00 0.00 84 1011.3
20260906083002 20 137 0.0 0.0 0.00 0.00 0.00 84 1011.3
20260906081542 20 137 0.0 0.0 0.00 0.00 0.00 83 1011.0
20260906080058 20 137 0.0 0.0 0.00 0.00 0.00 83 1011.1
20260906074526 20 137 0.0 0.0 0.00 0.00 0.00 83 1011.1
20260906073058 21 137 0.0 0.0 0.00 0.00 0.00 83 1010.9
20260906071522 21 137 0.0 0.0 0.00 0.00 0.00 82 1011.0
20260906070052 21 137 0.0 0.0 0.00 0.00 0.00 82 1011.2
20260906064521 21 137 0.0 0.0 0.00 0.00 0.00 82 1011.2
20260906063046 21 137 0.0 0.0 0.00 0.00 0.00 81 1011.4
20260906061524 21 137 0.0 0.0 0.00 0.00 0.00 81 1011.4
20260906060037 21 137 0.0 0.0 0.00 0.00 0.00 80 1011.5
20260906054505 21 137 0.0 0.0 0.00 0.00 0.00 80 1011.6
20260906053027 21 137 0.0 0.0 0.00 0.00 0.00 79 1011.7
20260906051556 21 137 0.0 0.0 0.00 0.00 0.00 79 1011.4
20260906050022 22 137 0.0 0.0 0.00 0.00 0.00 77 1011.3
20260906044548 22 137 0.0 0.0 0.00 0.00 0.00 76 1011.5
20260906043011 22 137 0.0 0.0 0.00 0.00 0.00 75 1011.3
20260906041541 22 137 0.0 0.0 0.00 0.00 0.00 75 1011.4
20260906040011 22 137 0.0 0.0 0.00 0.00 0.00 74 1011.3
20260906034542 23 137 0.0 0.0 0.00 0.00 0.00 74 1011.7
20260906033059 23 137 0.0 0.0 0.00 0.00 0.00 73 1011.8
20260906031543 23 137 0.0 0.0 0.00 0.00 0.00 72 1011.8
20260906030053 23 137 0.0 0.0 0.00 0.00 0.00 70 1011.7
20260906024522 24 137 0.0 0.0 0.00 0.00 0.00 70 1011.4
20260906023050 24 137 0.0 0.0 0.00 0.00 0.00 67 1011.3
20260906021521 25 137 0.0 0.0 0.00 0.00 0.00 66 1011.2
20260906020053 25 137 0.0 0.0 0.00 0.00 0.00 64 1011.2
20260906014515 26 137 0.0 0.0 0.00 0.00 0.00 61 1010.7
20260906013041 26 137 0.0 0.0 0.00 0.00 0.00 57 1010.7
20260906011517 27 137 0.0 0.0 0.00 0.00 0.00 55 1010.6
20260906010039 27 137 0.0 0.0 0.00 0.00 0.00 53 1010.4
20260906004510 27 137 0.0 0.0 0.00 0.00 0.00 52 1010.4
20260906003043 27 137 0.0 0.0 0.00 0.00 0.00 51 1010.2
20260906001504 28 137 0.0 0.0 0.00 0.00 0.00 50 1010.1
20260906000033 29 137 0.0 0.0 0.00 0.00 0.00 47 1009.7
20260905234507 30 137 0.0 0.0 0.00 0.00 0.00 44 1009.6
20260905233036 30 137 0.0 0.0 0.00 0.00 0.00 43 1009.6
20260905231557 31 134 0.0 0.0 0.00 0.00 0.00 41 1009.6
20260905230027 31 134 0.0 3.2 0.00 0.00 0.00 41 1009.6
20260905224600 31 135 0.0 6.4 0.00 0.00 0.00 39 1009.6
20260905223035 32 71 3.2 16.1 0.00 0.00 0.00 37 1009.6
20260905221559 33 119 0.0 14.5 0.00 0.00 0.00 37 1009.6
20260905220018 33 109 0.0 12.9 0.00 0.00 0.00 38 1009.4
20260905214546 33 124 0.0 24.1 0.00 0.00 0.00 37 1009.4
20260905213010 33 110 0.0 9.7 0.00 0.00 0.00 37 1009.1
20260905211545 33 174 0.0 3.2 0.00 0.00 0.00 37 1009.0
20260905210110 33 188 1.6 4.8 0.00 0.00 0.00 35 1009.0
20260905210005 33 143 1.6 4.8 0.00 0.00 0.00 35 1009.0
20260905204530 33 134 0.0 0.0 0.00 0.00 0.00 36 1009.0
20260905203100 33 163 1.6 8.0 0.00 0.00 0.00 33 1009.0
20260905203002 33 177 0.0 6.4 0.00 0.00 0.00 33 1009.0
20260905201537 34 164 0.0 9.7 0.00 0.00 0.00 31 1009.0
20260905200130 34 163 0.0 25.7 0.00 0.00 0.00 31 1008.8
20260905200004 34 163 0.0 25.7 0.00 0.00 0.00 31 1008.8
20260905194526 34 205 1.6 19.3 0.00 0.00 0.00 31 1008.6
20260905193046 33 126 1.6 16.1 0.00 0.00 0.00 37 1008.7
20260905191516 33 171 3.2 16.1 0.00 0.00 0.00 38 1009.0
20260905190040 33 120 1.6 12.9 0.00 0.00 0.00 40 1009.4
20260905184504 31 195 0.0 14.5 0.00 0.00 0.00 45 1010.0
20260905183036 31 97 4.8 20.9 0.00 0.00 0.00 46 1010.4
20260905181556 31 98 0.0 12.9 0.00 0.00 0.00 45 1010.6
20260905180028 31 210 0.0 4.8 0.00 0.00 0.00 45 1010.6
20260905174556 31 188 0.0 0.0 0.00 0.00 0.00 43 1010.5
20260905173016 31 60 0.0 14.5 0.00 0.00 0.00 45 1010.2
20260905171557 31 121 0.0 6.4 0.00 0.00 0.00 45 1010.6
20260905170017 31 67 0.0 22.5 0.00 0.00 0.00 44 1011.1
20260905164548 31 157 0.0 0.0 0.00 0.00 0.00 44 1011.3
20260905163008 31 116 0.0 8.0 0.00 0.00 0.00 46 1011.6
20260905161540 32 81 0.0 12.9 0.00 0.00 0.00 44 1011.7
20260905160056 31 216 0.0 6.4 0.00 0.18 0.00 46 1012.0
20260905154544 31 196 0.0 0.0 0.00 0.18 0.00 51 1012.1
20260905153046 30 170 0.0 3.2 0.00 0.18 0.00 52 1012.4
20260905151518 30 209 0.0 12.9 0.00 0.18 0.00 52 1012.4
20260905150040 31 153 0.0 0.0 0.00 0.18 0.00 52 1012.0
20260905144506 31 106 0.0 0.0 0.00 0.18 0.00 51 1011.6
20260905143038 31 124 0.0 6.4 0.00 0.18 0.00 50 1011.7
20260905141512 31 154 1.6 14.5 0.00 0.18 0.00 48 1011.6
20260905140040 31 229 0.0 0.0 0.00 0.18 0.00 51 1011.5
20260905134602 30 218 0.0 0.0 0.00 0.18 0.00 55 1011.6
20260905134502 30 242 0.0 0.0 0.00 0.18 0.00 55 1011.6
20260905133023 29 242 0.0 0.0 0.00 0.18 0.00 61 1011.5
20260905131542 28 242 0.0 0.0 0.00 0.18 0.00 64 1011.5
20260905130017 26 242 0.0 0.0 0.00 0.18 0.00 70 1011.5
20260905124545 25 242 0.0 0.0 0.00 0.18 0.00 74 1011.5
20260905123006 23 229 0.0 0.0 0.00 0.18 0.00 78 1011.5
20260905121527 22 234 0.0 0.0 0.00 0.18 0.00 81 1011.6
20260905120054 22 234 0.0 0.0 0.00 0.18 0.00 84 1011.6